Fallon NAS, NV

3:59 PM PDT on May 29, 2017 (GMT -0700)
Fallon Naval Air Station

Weather History for KNFL - May, 2012

Change the Weather History Date:

Saturday, May 5, 2012

  Actual Average Record
Temperature  
Mean Temperature 48 °F -  
Max Temperature 64 °F 69 °F 88 °F (1934)
Min Temperature 34 °F 39 °F 26 °F (1975)
Degree Days  
Heating Degree Days 16    
Moisture  
Dew Point 19 °F    
Average Humidity 35    
Maximum Humidity 67    
Minimum Humidity 11    
Precipitation  
Precipitation 0.00 in - - ()
Sea Level Pressure  
Sea Level Pressure 30.15 in    
Wind  
Wind Speed 7 mph (North)    
Max Wind Speed 13 mph    
Max Gust Speed 16 mph    
Visibility 10 miles    
Events      
Averages and records for this station are not official NWS values.
T = Trace of Precipitation, MM = Missing Value Source: NWS Daily Summary

Daily Weather History Graph

Daily Weather History Graph

Search for Another Location

Airport or City:

Trip Planner

Search our weather history database for the weather conditions in past years. The results will help you decide how hot, cold, wet, or windy it might be!

Date:

Astronomy

May. 05, 2012 Rise Set
Actual Time 5:50 AM PDT 7:52 PM PDT
Civil Twilight 5:21 AM PDT 8:22 PM PDT
Nautical Twilight 4:45 AM PDT 8:58 PM PDT
Astronomical Twilight 4:06 AM PDT 9:37 PM PDT
Moon 7:51 PM PDT (5/5) 5:16 AM PDT (5/5)
Length of Visible Light 15h 01m
Length of Day
14h 02m
Full, 100% of the Moon is Illuminated
May 5
Full
May 5
Full
May 12
Last Quarter
May 20
New
May 28
First Quarter

Hourly Weather History & Observations

Time (PDT) Temp. Windchill Dew Point Humidity Pressure Visibility Wind Dir Wind Speed Gust Speed Precip Events Conditions
12:56 AM 42.1 °F 37.1 °F 23.0 °F 47% 30.12 in 10.0 mi NNW 8.1 mph - N/A   Clear
1:56 AM 42.1 °F 36.6 °F 21.9 °F 45% 30.12 in 10.0 mi NNW 9.2 mph - N/A   Clear
2:56 AM 37.9 °F 33.5 °F 23.0 °F 55% 30.14 in 10.0 mi North 5.8 mph - N/A   Clear
3:56 AM 37.0 °F 31.0 °F 25.0 °F 62% 30.15 in 10.0 mi NNW 8.1 mph - N/A   Clear
4:56 AM 34.0 °F - 24.1 °F 67% 30.16 in 10.0 mi Calm Calm - N/A   Clear
5:56 AM 35.1 °F - 24.1 °F 64% 30.17 in 10.0 mi Calm Calm - N/A   Clear
6:56 AM 37.0 °F - 25.0 °F 62% 30.19 in 10.0 mi Calm Calm - N/A   Clear
7:56 AM 43.0 °F 38.2 °F 27.0 °F 53% 30.19 in 10.0 mi North 8.1 mph - N/A   Clear
8:56 AM 46.9 °F - 27.0 °F 46% 30.20 in 10.0 mi NNW 10.4 mph - N/A   Clear
9:03 AM 46.4 °F 41.5 °F 26.6 °F 46% 30.32 in 10.0 mi NNW 10.4 mph - N/A   Partly Cloudy
9:56 AM 50.0 °F - 26.1 °F 39% 30.20 in 10.0 mi NW 4.6 mph - N/A   Partly Cloudy
10:56 AM 54.0 °F - 24.1 °F 31% 30.20 in 10.0 mi NNE 8.1 mph - N/A   Partly Cloudy
11:56 AM 55.0 °F - 21.9 °F 28% 30.19 in 10.0 mi North 8.1 mph - N/A   Partly Cloudy
12:56 PM 57.9 °F - 19.9 °F 23% 30.17 in 10.0 mi North 8.1 mph - N/A   Partly Cloudy
1:56 PM 59.0 °F - 19.0 °F 21% 30.15 in 10.0 mi Variable 6.9 mph - N/A   Partly Cloudy
2:56 PM 62.1 °F - 15.1 °F 16% 30.13 in 10.0 mi NNE 8.1 mph 16.1 mph N/A   Clear
3:56 PM 62.1 °F - 12.9 °F 15% 30.11 in 10.0 mi NNW 11.5 mph - N/A   Clear
4:56 PM 63.0 °F - 8.1 °F 11% 30.09 in 10.0 mi North 8.1 mph - N/A   Clear
5:56 PM 63.0 °F - 6.1 °F 11% 30.09 in 10.0 mi NNE 11.5 mph - N/A   Clear
6:56 PM 61.0 °F - 10.0 °F 13% 30.08 in 10.0 mi NNE 12.7 mph - N/A   Clear
7:56 PM 55.0 °F - 12.9 °F 19% 30.09 in 10.0 mi NNE 5.8 mph - N/A   Clear
8:56 PM 48.9 °F - 14.0 °F 25% 30.10 in 10.0 mi North 6.9 mph - N/A   Clear
9:56 PM 50.0 °F - 14.0 °F 24% 30.11 in 10.0 mi North 8.1 mph - N/A   Clear
10:56 PM 46.0 °F 41.4 °F 14.0 °F 28% 30.12 in 10.0 mi NNE 9.2 mph - N/A   Clear
11:56 PM 48.0 °F - 10.9 °F 22% 30.12 in 10.0 mi North 11.5 mph - N/A   Clear